Change the Weather History Date:

Thursday, February 20, 2014

  Actual Average (KGAF) Record (KGAF)
Temperature  
Mean Temperature 9 °F -  
Max Temperature 17 °F 24 °F 47 °F (1981)
Min Temperature 1 °F 4 °F -33 °F (1966)
Degree Days  
Heating Degree Days 56    
Moisture  
Dew Point 5 °F    
Average Humidity 82    
Maximum Humidity 93    
Minimum Humidity 67    
Precipitation  
Precipitation 0.00 in - - ()
Sea Level Pressure  
Sea Level Pressure 29.64 in    
Wind  
Wind Speed 15 mph (NNW)    
Max Wind Speed 22 mph    
Max Gust Speed 28 mph    
Visibility 9 miles    
Events Rain , Snow    
Averages and records for this station are not official NWS values.
T = Trace of Precipitation, MM = Missing Value Source: NWS Daily Summary

Daily Weather History Graph

Daily Weather History Graph

Search for Another Location

Airport or City:

Trip Planner

Search our weather history database for the weather conditions in past years. The results will help you decide how hot, cold, wet, or windy it might be!

Date:

Astronomy

Feb. 20, 2014 Rise Set
Actual Time 7:29 AM CST 5:59 PM CST
Civil Twilight 6:57 AM CST 6:31 PM CST
Nautical Twilight 6:20 AM CST 7:08 PM CST
Astronomical Twilight 5:44 AM CST 7:45 PM CST
Moon No Moon Rise 9:43 AM CST (2/20)
Length of Visible Light 11h 34m
Length of Day
10h 30m
Waning Gibbous, 70% of the Moon is Illuminated
Feb 20
Waning Gibbous
Feb 22
Last Quarter
Mar 1
New
Mar 8
First Quarter
Mar 16
Full

Hourly Weather History & Observations

Time (CST) Temp. Windchill Dew Point Humidity Pressure Visibility Wind Dir Wind Speed Gust Speed Precip Events Conditions
12:15 AM 15.8 °F 1.4 °F 14.0 °F 93% 29.51 in 8.0 mi NNW 13.8 mph 18.4 mph N/A Snow Light Snow
12:35 AM 15.8 °F 1.4 °F 14.0 °F 93% 29.51 in 10.0 mi NNW 13.8 mph 17.3 mph N/A   Overcast
12:55 AM 15.8 °F 2.1 °F 14.0 °F 93% 29.51 in 10.0 mi NNW 12.7 mph - N/A   Overcast
1:15 AM 15.8 °F 1.4 °F 14.0 °F 93% 29.52 in 10.0 mi NW 13.8 mph - N/A   Mostly Cloudy
1:35 AM 15.8 °F 2.7 °F 14.0 °F 93% 29.52 in 10.0 mi NW 11.5 mph - N/A   Mostly Cloudy
1:55 AM 15.8 °F 2.1 °F 14.0 °F 93% 29.53 in 10.0 mi NW 12.7 mph - N/A   Partly Cloudy
2:15 AM 15.8 °F 2.7 °F 14.0 °F 93% 29.53 in 10.0 mi NW 11.5 mph - N/A   Partly Cloudy
2:35 AM 15.8 °F 1.4 °F 14.0 °F 93% 29.52 in 10.0 mi NW 13.8 mph - N/A   Clear
2:55 AM 17.6 °F 3.7 °F 14.0 °F 86% 29.52 in 10.0 mi NW 13.8 mph - N/A   Mostly Cloudy
3:15 AM 17.6 °F 3.7 °F 14.0 °F 86% 29.52 in 10.0 mi NW 13.8 mph - N/A   Overcast
3:35 AM 15.8 °F 1.4 °F 14.0 °F 93% 29.53 in 10.0 mi NW 13.8 mph - N/A   Overcast
3:55 AM 17.6 °F 3.7 °F 14.0 °F 86% 29.53 in 10.0 mi NW 13.8 mph - N/A   Overcast
4:15 AM 15.8 °F 2.1 °F 14.0 °F 93% 29.51 in 10.0 mi NNW 12.7 mph - N/A   Overcast
4:35 AM 15.8 °F 2.1 °F 14.0 °F 93% 29.53 in 10.0 mi NNW 12.7 mph - N/A   Overcast
4:55 AM 15.8 °F 2.1 °F 14.0 °F 93% 29.53 in 10.0 mi NW 12.7 mph - N/A   Overcast
5:15 AM 15.8 °F 0.9 °F 12.2 °F 86% 29.54 in 10.0 mi NW 15.0 mph 20.7 mph N/A   Overcast
5:35 AM 14.0 °F -0.8 °F 10.4 °F 86% 29.54 in 10.0 mi NNW 13.8 mph 20.7 mph N/A   Overcast
5:55 AM 14.0 °F -2.5 °F 10.4 °F 86% 29.55 in 10.0 mi NW 17.3 mph - N/A   Overcast
6:15 AM 14.0 °F 0.5 °F 10.4 °F 86% 29.56 in 10.0 mi NW 11.5 mph - N/A   Overcast
6:35 AM 14.0 °F -0.2 °F 8.6 °F 79% 29.56 in 10.0 mi NW 12.7 mph - N/A   Overcast
6:55 AM 14.0 °F 1.2 °F 8.6 °F 79% 29.57 in 10.0 mi NW 10.4 mph - N/A   Overcast
7:15 AM 12.2 °F -0.2 °F 8.6 °F 85% 29.58 in 9.0 mi NW 9.2 mph - N/A Snow Light Snow
7:35 AM 12.2 °F -3.1 °F 8.6 °F 85% 29.59 in 9.0 mi NW 13.8 mph - N/A Snow Light Snow
7:55 AM 12.2 °F -2.5 °F 8.6 °F 85% 29.59 in 7.0 mi NW 12.7 mph - N/A Snow Light Snow
8:15 AM 10.4 °F -7.7 °F 6.8 °F 85% 29.60 in 5.0 mi NW 18.4 mph 23.0 mph N/A Rain Light Freezing Rain
8:35 AM 10.4 °F -6.6 °F 6.8 °F 85% 29.60 in 5.0 mi NNW 16.1 mph 25.3 mph N/A Rain Light Freezing Rain
8:55 AM 10.4 °F -7.2 °F 6.8 °F 85% 29.62 in 6.0 mi NNW 17.3 mph 23.0 mph N/A Rain Light Freezing Rain
9:15 AM 10.4 °F -7.2 °F 6.8 °F 85% 29.62 in 5.0 mi NW 17.3 mph 24.2 mph N/A Rain Light Freezing Rain
9:35 AM 10.4 °F -6.0 °F 6.8 °F 85% 29.64 in 5.0 mi NNW 15.0 mph 23.0 mph N/A Rain Light Freezing Rain
9:55 AM 10.4 °F -7.7 °F 5.0 °F 79% 29.64 in 4.0 mi NW 18.4 mph 23.0 mph N/A Snow Light Snow
10:15 AM 10.4 °F -8.6 °F 5.0 °F 79% 29.64 in 5.0 mi NW 20.7 mph 26.5 mph N/A Rain Light Freezing Rain
10:35 AM 10.4 °F -8.2 °F 5.0 °F 79% 29.64 in 4.0 mi NNW 19.6 mph 25.3 mph N/A Rain Light Freezing Rain
10:55 AM 8.6 °F -10.0 °F 5.0 °F 85% 29.65 in 3.0 mi NNW 18.4 mph 25.3 mph N/A Rain Light Freezing Rain
11:15 AM 8.6 °F -10.0 °F 5.0 °F 85% 29.66 in 7.0 mi NW 18.4 mph 24.2 mph N/A   Overcast
11:35 AM 10.4 °F -8.2 °F 5.0 °F 79% 29.67 in 6.0 mi NNW 19.6 mph 26.5 mph N/A   Haze
11:55 AM 10.4 °F -7.2 °F 3.2 °F 73% 29.68 in 9.0 mi NNW 17.3 mph 25.3 mph N/A   Partly Cloudy
12:15 PM 10.4 °F -7.7 °F 3.2 °F 73% 29.69 in 10.0 mi NW 18.4 mph - N/A   Mostly Cloudy
12:35 PM 8.6 °F -7.7 °F 3.2 °F 79% 29.69 in 10.0 mi NNW 13.8 mph - N/A   Mostly Cloudy
12:55 PM 8.6 °F -9.5 °F 3.2 °F 79% 29.69 in 10.0 mi NW 17.3 mph 23.0 mph N/A   Partly Cloudy
1:15 PM 10.4 °F -6.6 °F 3.2 °F 73% 29.69 in 10.0 mi NW 16.1 mph 21.9 mph N/A   Partly Cloudy
1:35 PM 10.4 °F -7.2 °F 3.2 °F 73% 29.69 in 10.0 mi NW 17.3 mph 24.2 mph N/A   Scattered Clouds
1:55 PM 10.4 °F -6.6 °F 1.4 °F 67% 29.70 in 8.0 mi NW 16.1 mph 26.5 mph N/A   Partly Cloudy
2:15 PM 10.4 °F -7.7 °F 1.4 °F 67% 29.69 in 5.0 mi NW 18.4 mph 25.3 mph N/A   Haze
2:35 PM 10.4 °F -8.6 °F 3.2 °F 73% 29.69 in 9.0 mi NNW 20.7 mph - N/A   Clear
2:55 PM 10.4 °F -9.1 °F 3.2 °F 73% 29.70 in 7.0 mi NNW 21.9 mph 27.6 mph N/A   Clear
3:15 PM 10.4 °F -6.0 °F 3.2 °F 73% 29.71 in 10.0 mi NNW 15.0 mph 23.0 mph N/A   Clear
3:35 PM 8.6 °F -7.0 °F 3.2 °F 79% 29.71 in 10.0 mi NNW 12.7 mph - N/A   Clear
3:55 PM 8.6 °F -7.0 °F 1.4 °F 73% 29.72 in 10.0 mi NNW 12.7 mph - N/A   Clear
4:15 PM 8.6 °F -6.3 °F 1.4 °F 73% 29.72 in 10.0 mi North 11.5 mph - N/A   Partly Cloudy
4:35 PM 8.6 °F -6.3 °F 1.4 °F 73% 29.72 in 10.0 mi North 11.5 mph - N/A   Mostly Cloudy
4:55 PM 8.6 °F -7.7 °F 1.4 °F 73% 29.72 in 10.0 mi NNW 13.8 mph 19.6 mph N/A   Partly Cloudy
5:15 PM 8.6 °F -6.3 °F 1.4 °F 73% 29.73 in 10.0 mi North 11.5 mph - N/A   Clear
5:35 PM 6.8 °F -9.3 °F 1.4 °F 79% 29.74 in 10.0 mi NNW 12.7 mph - N/A   Clear
5:55 PM 6.8 °F -8.6 °F 1.4 °F 79% 29.74 in 10.0 mi NNW 11.5 mph - N/A   Clear
6:15 PM 6.8 °F -11.3 °F -0.4 °F 72% 29.75 in 10.0 mi NNW 16.1 mph 20.7 mph N/A   Clear
6:35 PM 5.0 °F -10.8 °F -0.4 °F 78% 29.75 in 10.0 mi North 11.5 mph - N/A   Scattered Clouds
6:55 PM 5.0 °F -12.3 °F -0.4 °F 78% 29.75 in 10.0 mi NNW 13.8 mph - N/A   Overcast
7:15 PM 5.0 °F -11.6 °F -0.4 °F 78% 29.75 in 10.0 mi NNW 12.7 mph 18.4 mph N/A Snow Light Snow
7:35 PM 5.0 °F -14.2 °F -0.4 °F 78% 29.74 in 10.0 mi NNW 17.3 mph 23.0 mph N/A   Partly Cloudy
7:55 PM 5.0 °F -14.2 °F -0.4 °F 78% 29.73 in 10.0 mi NNW 17.3 mph - N/A   Clear
8:15 PM 5.0 °F -14.2 °F -0.4 °F 78% 29.73 in 10.0 mi NNW 17.3 mph 23.0 mph N/A   Clear
8:35 PM 5.0 °F -14.2 °F -0.4 °F 78% 29.72 in 10.0 mi NNW 17.3 mph - N/A   Clear
8:55 PM 5.0 °F -14.7 °F -0.4 °F 78% 29.72 in 10.0 mi NNW 18.4 mph - N/A   Clear
9:15 PM 5.0 °F -13.0 °F -0.4 °F 78% 29.72 in 10.0 mi NNW 15.0 mph - N/A   Clear
9:35 PM 3.2 °F -15.9 °F -0.4 °F 85% 29.72 in 10.0 mi NNW 16.1 mph 23.0 mph N/A   Clear
9:55 PM 3.2 °F -16.5 °F -0.4 °F 85% 29.72 in 10.0 mi NNW 17.3 mph 23.0 mph N/A   Clear
10:15 PM 1.4 °F -17.6 °F -2.2 °F 85% 29.72 in 10.0 mi NNW 15.0 mph 23.0 mph N/A   Clear
10:35 PM 1.4 °F -18.8 °F -2.2 °F 85% 29.72 in 10.0 mi NNW 17.3 mph 20.7 mph N/A   Clear
10:55 PM 3.2 °F -16.5 °F -2.2 °F 78% 29.71 in 10.0 mi NNW 17.3 mph 21.9 mph N/A   Clear
11:15 PM 3.2 °F -17.1 °F -2.2 °F 78% 29.70 in 10.0 mi NNW 18.4 mph 26.5 mph N/A   Scattered Clouds
11:35 PM 1.4 °F -18.8 °F -2.2 °F 85% 29.70 in 10.0 mi NNW 17.3 mph 25.3 mph N/A   Partly Cloudy
11:55 PM 1.4 °F -18.2 °F -2.2 °F 85% 29.70 in 10.0 mi NNW 16.1 mph 25.3 mph N/A   Clear